Location: Fort Worth, Tx
(32.7431°N, 97.3695°W)
Time: 14:01:42
(UTC-04:00)

Transit 2A - Pass Details

Date: 01 March 2024
Orbit: 596 x 956 km, 66.7° (Epoch: 20 April)

Event Time Altitude Azimuth Distance (km) Brightness Sun altitude
Rises 20:12:18 0° 236° (SW) 2,877 10.1 -10.3°
Reaches altitude 10° 20:15:00 10° 252° (WSW) 1,947 9.5 -10.8°
Maximum altitude 20:18:22 22° 303° (WNW) 1,327 8.0 -11.5°
Drops below altitude 10° 20:21:44 10° 355° (N) 1,936 8.2 -12.2°
Sets 20:24:25 0° 11° (N) 2,856 8.9 -12.8°
